Hourly Weather Al Khubar

Today, 4 March, Thursday

Time Temperature Precipitation Wind Pressure Humidity
00:00 +20°C° 0 mm 5 mps 761 mmHg 50%
01:00 +20°C° 0 mm 4 mps 760 mmHg 49%
02:00 +20°C° 0 mm 4 mps 759 mmHg 48%
03:00 +19°C° 0 mm 3 mps 759 mmHg 50%
04:00 +20°C° 0 mm 3 mps 759 mmHg 50%
05:00 +20°C° 0 mm 3 mps 759 mmHg 50%
06:00 +20°C° 0 mm 3 mps 759 mmHg 50%
07:00 +21°C° 0 mm 3 mps 759 mmHg 46%
08:00 +23°C° 0 mm 2 mps 760 mmHg 42%
09:00 +24°C° 0 mm 1 mps 760 mmHg 37%
10:00 +25°C° 0 mm 1 mps 760 mmHg 33%
11:00 +26°C° 0 mm 1 mps 760 mmHg 30%
12:00 +28°C° 0 mm 1 mps 759 mmHg 26%
13:00 +28°C° 0 mm 1 mps 759 mmHg 25%
14:00 +29°C° 0 mm 2 mps 758 mmHg 24%
15:00 +29°C° 0 mm 2 mps 758 mmHg 23%
16:00 +28°C° 0 mm 3 mps 758 mmHg 25%
17:00 +28°C° 0 mm 3 mps 757 mmHg 28%
18:00 +27°C° 0 mm 4 mps 757 mmHg 30%
19:00 +27°C° 0 mm 5 mps 758 mmHg 33%
20:00 +26°C° 0 mm 5 mps 758 mmHg 37%
21:00 +24°C° 0 mm 6 mps 758 mmHg 40%
22:00 +24°C° 0 mm 6 mps 758 mmHg 43%
23:00 +24°C° 0 mm 7 mps 757 mmHg 46%

Tomorrow, 5 March, Friday

Time Temperature Precipitation Wind Pressure Humidity
00:00 +24°C° 0 mm 7 mps 757 mmHg 48%
01:00 +24°C° 0 mm 7 mps 756 mmHg 49%
02:00 +24°C° 0 mm 8 mps 756 mmHg 50%
03:00 +24°C° 0 mm 8 mps 756 mmHg 51%
04:00 +23°C° 0 mm 7 mps 756 mmHg 51%
05:00 +23°C° 0 mm 6 mps 757 mmHg 51%
06:00 +22°C° 0 mm 5 mps 757 mmHg 50%
07:00 +25°C° 0 mm 5 mps 758 mmHg 42%
08:00 +26°C° 0 mm 5 mps 759 mmHg 35%
09:00 +28°C° 0 mm 6 mps 760 mmHg 27%
10:00 +27°C° 0 mm 8 mps 760 mmHg 28%
11:00 +27°C° 0 mm 10 mps 760 mmHg 29%
12:00 +27°C° 0 mm 12 mps 761 mmHg 30%
13:00 +26°C° 0 mm 12 mps 760 mmHg 29%
14:00 +26°C° 0 mm 12 mps 760 mmHg 28%
15:00 +26°C° 0 mm 11 mps 760 mmHg 27%
16:00 +24°C° 0 mm 10 mps 760 mmHg 29%
17:00 +23°C° 0 mm 9 mps 761 mmHg 32%
18:00 +22°C° 0 mm 8 mps 762 mmHg 34%
19:00 +22°C° 0 mm 8 mps 762 mmHg 36%
20:00 +21°C° 0 mm 8 mps 762 mmHg 37%
21:00 +21°C° 0 mm 7 mps 763 mmHg 38%
22:00 +21°C° 0 mm 8 mps 763 mmHg 41%
23:00 +21°C° 0 mm 8 mps 763 mmHg 45%

Day after tomorrow, 6 March, Saturday

Time Temperature Precipitation Wind Pressure Humidity
00:00 +20°C° 0 mm 8 mps 763 mmHg 48%
01:00 +20°C° 0 mm 8 mps 762 mmHg 50%
02:00 +19°C° 0 mm 9 mps 762 mmHg 52%
03:00 +19°C° 0 mm 9 mps 762 mmHg 54%
04:00 +18°C° 0 mm 9 mps 762 mmHg 55%
05:00 +18°C° 0 mm 9 mps 763 mmHg 56%
06:00 +18°C° 0 mm 8 mps 763 mmHg 57%
07:00 +19°C° 0 mm 9 mps 763 mmHg 54%
08:00 +21°C° 0 mm 9 mps 764 mmHg 51%
09:00 +22°C° 0 mm 10 mps 764 mmHg 48%
10:00 +22°C° 0 mm 10 mps 764 mmHg 45%
11:00 +23°C° 0 mm 10 mps 764 mmHg 42%
12:00 +24°C° 0 mm 10 mps 763 mmHg 39%
13:00 +24°C° 0 mm 10 mps 763 mmHg 36%
14:00 +23°C° 0 mm 10 mps 762 mmHg 34%
15:00 +23°C° 0 mm 10 mps 762 mmHg 32%
16:00 +23°C° 0 mm 9 mps 762 mmHg 31%
17:00 +22°C° 0 mm 9 mps 762 mmHg 31%
18:00 +21°C° 0 mm 8 mps 763 mmHg 30%
19:00 +21°C° 0 mm 7 mps 763 mmHg 32%
20:00 +20°C° 0 mm 7 mps 763 mmHg 34%
21:00 +20°C° 0 mm 6 mps 763 mmHg 36%
22:00 +20°C° 0 mm 6 mps 763 mmHg 37%
23:00 +18°C° 0 mm 7 mps 763 mmHg 38%

7 March, Sunday

Time Temperature Precipitation Wind Pressure Humidity
00:00 +18°C° 0 mm 7 mps 762 mmHg 39%
01:00 +18°C° 0 mm 7 mps 762 mmHg 37%
02:00 +17°C° 0 mm 8 mps 761 mmHg 34%
03:00 +17°C° 0 mm 8 mps 761 mmHg 32%
04:00 +17°C° 0 mm 8 mps 761 mmHg 33%
05:00 +17°C° 0 mm 8 mps 761 mmHg 34%
06:00 +16°C° 0 mm 8 mps 762 mmHg 35%
07:00 +18°C° 0 mm 8 mps 762 mmHg 34%
08:00 +20°C° 0 mm 8 mps 762 mmHg 33%
09:00 +21°C° 0 mm 8 mps 762 mmHg 32%
10:00 +22°C° 0 mm 8 mps 762 mmHg 30%
11:00 +24°C° 0 mm 8 mps 761 mmHg 28%
12:00 +26°C° 0 mm 7 mps 761 mmHg 25%
13:00 +26°C° 0 mm 7 mps 760 mmHg 25%
14:00 +26°C° 0 mm 7 mps 760 mmHg 25%
15:00 +26°C° 0 mm 7 mps 759 mmHg 24%
16:00 +24°C° 0 mm 7 mps 759 mmHg 26%
17:00 +23°C° 0 mm 6 mps 759 mmHg 28%
18:00 +22°C° 0 mm 6 mps 759 mmHg 30%
19:00 +21°C° 0 mm 5 mps 760 mmHg 31%
20:00 +21°C° 0 mm 5 mps 760 mmHg 33%
21:00 +20°C° 0 mm 4 mps 760 mmHg 35%
22:00 +20°C° 0 mm 4 mps 760 mmHg 34%
23:00 +19°C° 0 mm 4 mps 760 mmHg 33%

8 March, Monday

Time Temperature Precipitation Wind Pressure Humidity
00:00 +19°C° 0 mm 4 mps 760 mmHg 33%
01:00 +19°C° 0 mm 4 mps 759 mmHg 31%
02:00 +19°C° 0 mm 4 mps 759 mmHg 30%
03:00 +19°C° 0 mm 4 mps 759 mmHg 29%
04:00 +19°C° 0 mm 4 mps 759 mmHg 28%
05:00 +18°C° 0 mm 3 mps 759 mmHg 27%
06:00 +18°C° 0 mm 3 mps 759 mmHg 27%
07:00 +20°C° 0 mm 3 mps 760 mmHg 25%
08:00 +21°C° 0 mm 3 mps 760 mmHg 22%
09:00 +24°C° 0 mm 3 mps 761 mmHg 20%
10:00 +25°C° 0 mm 3 mps 760 mmHg 19%
11:00 +26°C° 0 mm 3 mps 760 mmHg 18%
12:00 +28°C° 0 mm 3 mps 759 mmHg 17%
13:00 +28°C° 0 mm 3 mps 759 mmHg 18%
14:00 +28°C° 0 mm 3 mps 758 mmHg 19%
15:00 +28°C° 0 mm 4 mps 758 mmHg 20%
16:00 +27°C° 0 mm 3 mps 758 mmHg 24%
17:00 +26°C° 0 mm 3 mps 758 mmHg 27%
18:00 +25°C° 0 mm 2 mps 758 mmHg 31%
19:00 +24°C° 0 mm 3 mps 758 mmHg 32%
20:00 +23°C° 0 mm 4 mps 758 mmHg 34%
21:00 +22°C° 0 mm 4 mps 758 mmHg 35%
22:00 +22°C° 0 mm 3 mps 758 mmHg 37%
23:00 +22°C° 0 mm 3 mps 758 mmHg 38%

9 March, Tuesday

Time Temperature Precipitation Wind Pressure Humidity
00:00 +21°C° 0 mm 2 mps 757 mmHg 40%
01:00 +21°C° 0 mm 2 mps 757 mmHg 40%
02:00 +21°C° 0 mm 2 mps 757 mmHg 40%
03:00 +21°C° 0 mm 2 mps 757 mmHg 40%
04:00 +21°C° 0 mm 2 mps 757 mmHg 42%
05:00 +21°C° 0 mm 3 mps 758 mmHg 43%
06:00 +20°C° 0 mm 3 mps 758 mmHg 45%
07:00 +22°C° 0 mm 3 mps 759 mmHg 38%
08:00 +24°C° 0 mm 3 mps 759 mmHg 32%
09:00 +26°C° 0 mm 4 mps 760 mmHg 25%
10:00 +27°C° 0 mm 3 mps 759 mmHg 23%
11:00 +28°C° 0 mm 3 mps 759 mmHg 22%
12:00 +29°C° 0 mm 3 mps 759 mmHg 21%
13:00 +29°C° 0 mm 4 mps 758 mmHg 23%
14:00 +28°C° 0 mm 6 mps 758 mmHg 25%
15:00 +27°C° 0 mm 7 mps 758 mmHg 27%
16:00 +26°C° 0 mm 7 mps 758 mmHg 29%
17:00 +26°C° 0 mm 6 mps 759 mmHg 30%
18:00 +24°C° 0 mm 6 mps 760 mmHg 32%
19:00 +23°C° 0 mm 6 mps 760 mmHg 34%
20:00 +23°C° 0 mm 5 mps 760 mmHg 37%
21:00 +22°C° 0 mm 5 mps 760 mmHg 39%
22:00 +22°C° 0 mm 5 mps 760 mmHg 39%
23:00 +22°C° 0 mm 5 mps 760 mmHg 40%
Show more